Location: Baumgartsau
(48.4586°N, 14.0864°E)
Time: 01:35:15
(UTC+00:00)

SL-16 R/B - Pass Details

Date: 14 August 2020
Orbit: 843 x 845 km, 71.0° (Epoch: 26 September)

Event Time Altitude Azimuth Distance (km) Brightness Sun altitude
Rises 21:53:08 0° 317° (NW) 3,415 6.4 -25.4°
Reaches altitude 10° 21:56:44 10° 294° (WNW) 2,474 5.2 -25.6°
Maximum altitude 21:59:39 14° 263° (W) 2,167 4.4 -25.7°
Enters shadow 22:01:35 12° 241° (WSW) 2,302 4.3 -25.8°
